Doha, Qatar

6:54 AM +03 on May 25, 2018 (GMT +0300)
Doha International

Weather History for OTBD - April, 2013

Change the Weather History Date:

Monday, April 22, 2013

  Actual Average Record
Temperature  
Mean Temperature 82 °F -  
Max Temperature 86 °F 98 °F 105 °F (2018)
Min Temperature 77 °F 75 °F 68 °F (1997)
Cooling Degree Days 16    
Growing Degree Days 32 (Base 50)    
Moisture  
Dew Point 48 °F    
Average Humidity 31    
Maximum Humidity 42    
Minimum Humidity 11    
Precipitation  
Precipitation 0.00 in 0.01 in - ()
Sea Level Pressure  
Sea Level Pressure 29.81 in    
Wind  
Wind Speed 16 mph ()    
Max Wind Speed 23 mph    
Max Gust Speed -    
Visibility 5.2 miles    
Events      
Averages and records for this station are not official NWS values.
T = Trace of Precipitation, MM = Missing Value Source: Averaged Metar Reports

Daily Weather History Graph

Daily Weather History Graph

Search for Another Location

Airport or City:

Astronomy

Apr. 22, 2013 Rise Set
Actual Time 5:05 AM +03 5:59 PM +03
Civil Twilight 4:41 AM +03 6:23 PM +03
Nautical Twilight 4:13 AM +03 6:51 PM +03
Astronomical Twilight 3:44 AM +03 7:20 PM +03
Moon 2:43 PM +03 (4/22) 2:23 AM +03 (4/22)
Length of Visible Light 13h 42m
Length of Day
12h 54m
Waxing Gibbous, 85% of the Moon is Illuminated
Apr 22
Waxing Gibbous
Apr 25
Full
May 2
Last Quarter
May 10
New
May 18
First Quarter

Hourly Weather History & Observations

Time (+03) Temp. Dew Point Humidity Pressure Visibility Wind Dir Wind Speed Gust Speed Precip Events Conditions
12:00 AM 78.8 °F 48.2 °F 34% 29.77 in - NNW 17.3 mph - N/A   Clear
12:30 AM 78.8 °F 50.0 °F 36% 29.74 in - NNW 17.3 mph - N/A   Clear
1:00 AM 78.8 °F 51.8 °F 39% 29.74 in - NNW 18.4 mph - N/A   Clear
1:30 AM 78.8 °F 53.6 °F 42% 29.74 in 5.0 mi NNW 18.4 mph - N/A   Unknown
2:00 AM 80.6 °F 51.8 °F 37% 29.74 in 5.0 mi North 23.0 mph - N/A   Unknown
2:30 AM 80.6 °F 51.8 °F 37% 29.74 in 5.6 mi NNW 18.4 mph - N/A   Unknown
3:00 AM 80 °F 51 °F 25% 29.74 in 6 mi NNW 18.4 mph - -  
3:00 AM 80.6 °F 50.0 °F 34% 29.74 in - NNW 18.4 mph - N/A   Clear
4:00 AM 78.8 °F 53.6 °F 42% 29.74 in - NNW 16.1 mph - N/A   Clear
5:00 AM 78.8 °F 46.4 °F 32% 29.74 in 5.0 mi North 20.7 mph - N/A   Unknown
5:30 AM 78.8 °F 50.0 °F 36% 29.74 in 4.3 mi North 19.6 mph - N/A   Unknown
6:00 AM 78.8 °F 50.0 °F 36% 29.77 in 4.3 mi North 19.6 mph - N/A   Unknown
6:30 AM 78.8 °F 48.2 °F 34% 29.77 in 4.3 mi North 19.6 mph - N/A   Unknown
7:00 AM 80.6 °F 48.2 °F 32% 29.77 in 4.3 mi North 19.6 mph - N/A   Unknown
7:30 AM 82.4 °F 44.6 °F 26% 29.80 in 4.3 mi North 21.9 mph - N/A   Unknown
8:00 AM 82.4 °F 44.6 °F 26% 29.80 in 5.0 mi North 23.0 mph - N/A   Unknown
8:30 AM 84.2 °F 41.0 °F 22% 29.83 in 5.0 mi North 18.4 mph - N/A   Unknown
9:00 AM 84 °F 38 °F 11% 29.86 in 5 mi North 18.4 mph - -   Widespread Dust
9:00 AM 84.2 °F 39.2 °F 20% 29.86 in 5.0 mi North 18.4 mph - N/A   Unknown
9:30 AM 84.2 °F 39.2 °F 20% 29.83 in 5.0 mi North 19.6 mph - N/A   Unknown
10:00 AM 84.2 °F 44.6 °F 25% 29.83 in 5.0 mi North 18.4 mph - N/A   Unknown
10:30 AM 84.2 °F 50.0 °F 30% 29.83 in 5.6 mi North 19.6 mph - N/A   Unknown
11:00 AM 84.2 °F 50.0 °F 30% 29.86 in 5.6 mi NNE 18.4 mph - N/A   Unknown
11:30 AM 82.4 °F 50.0 °F 32% 29.86 in 6.2 mi NNE 16.1 mph - N/A   Partly Cloudy
12:00 PM 84.2 °F 48.2 °F 29% 29.86 in 6.2 mi NNE 16.1 mph - N/A   Partly Cloudy
12:30 PM 84.2 °F 48.2 °F 29% 29.83 in - NNE 16.1 mph - N/A   Clear
1:00 PM 84.2 °F 46.4 °F 27% 29.83 in - NNE 17.3 mph - N/A   Clear
1:30 PM 84.2 °F 50.0 °F 30% 29.83 in - North 17.3 mph - N/A   Clear
2:00 PM 82.4 °F 50.0 °F 32% 29.80 in - NNE 16.1 mph - N/A   Clear
3:00 PM 82 °F 51 °F 24% 29.81 in 7 mi NNE 15.0 mph - -   Partly Cloudy
3:00 PM 82.4 °F 51.8 °F 35% 29.80 in - NNE 15.0 mph - N/A   Clear
4:00 PM 82.4 °F 51.8 °F 35% 29.80 in - NNE 17.3 mph - N/A   Clear
4:30 PM 84.2 °F 51.8 °F 33% 29.77 in - NNE 19.6 mph - N/A   Clear
5:00 PM 82.4 °F 48.2 °F 30% 29.80 in - North 18.4 mph - N/A   Clear
5:30 PM 82.4 °F 46.4 °F 28% 29.80 in - North 18.4 mph - N/A   Clear
6:00 PM 80.6 °F 46.4 °F 30% 29.80 in - North 16.1 mph - N/A   Clear
7:00 PM 80.6 °F 46.4 °F 30% 29.83 in 5.0 mi North 15.0 mph - N/A   Unknown
8:00 PM 78.8 °F 46.4 °F 32% 29.86 in 5.6 mi NNW 15.0 mph - N/A   Unknown
8:30 PM 77.0 °F 48.2 °F 36% 29.86 in 5.6 mi NNW 15.0 mph - N/A   Unknown
9:00 PM 77 °F 47 °F 24% 29.89 in 6 mi NNW 15.0 mph - -   Widespread Dust
9:30 PM 77.0 °F 48.2 °F 36% 29.89 in - NNW 15.0 mph - N/A   Clear
10:00 PM 77.0 °F 48.2 °F 36% 29.89 in - NNW 13.8 mph - N/A   Clear
10:30 PM 77.0 °F 48.2 °F 36% 29.89 in - NNW 15.0 mph - N/A   Clear
11:00 PM 77.0 °F 50.0 °F 39% 29.86 in - NNW 11.5 mph - N/A   Clear
11:30 PM 77.0 °F 51.8 °F 41% 29.86 in - North 10.4 mph - N/A   Clear